Radiation Dose at Monitoring Post of Fukushima Daini Nuclear Power Station
Date,Time,MP-1(microSv/h),MP-2(microSv/h),MP-3(microSv/h),MP-4(microSv/h),MP-5(microSv/h),MP-6(microSv/h),MP-7(microSv/h),Wind Direction,Wind Velocity(m/s),Rain
2017/03/23,00:00,0.383,0.230,0.390,0.360,0.330,0.191,0.162,west,4.0,No
2017/03/23,00:10,0.384,0.231,0.390,0.361,0.330,0.192,0.161,west,3.3,No
2017/03/23,00:20,0.384,0.230,0.390,0.361,0.331,0.192,0.162,west,4.9,No
2017/03/23,00:30,0.383,0.232,0.393,0.359,0.330,0.192,0.162,west-southwest,5.5,No
2017/03/23,00:40,0.382,0.231,0.391,0.361,0.330,0.192,0.161,west-southwest,4.5,No
2017/03/23,00:50,0.383,0.232,0.391,0.360,0.331,0.191,0.161,west,3.2,No
2017/03/23,01:00,0.384,0.231,0.391,0.362,0.330,0.192,0.162,northwest,2.2,No
2017/03/23,01:10,0.385,0.232,0.392,0.360,0.330,0.191,0.161,west,2.2,No
2017/03/23,01:20,0.384,0.232,0.392,0.362,0.331,0.192,0.161,west-southwest,2.9,No
2017/03/23,01:30,0.384,0.230,0.392,0.360,0.330,0.190,0.163,west,3.1,No
2017/03/23,01:40,0.384,0.231,0.391,0.361,0.331,0.193,0.161,west,2.2,No
2017/03/23,01:50,0.385,0.232,0.392,0.362,0.329,0.191,0.162,west-northwest,2.6,No
2017/03/23,02:00,0.385,0.233,0.393,0.361,0.330,0.192,0.161,northwest,3.3,No
2017/03/23,02:10,0.383,0.232,0.392,0.360,0.331,0.192,0.161,west-northwest,3.6,No
2017/03/23,02:20,0.385,0.231,0.390,0.360,0.331,0.191,0.161,west-northwest,4.2,No
2017/03/23,02:30,0.384,0.232,0.392,0.360,0.332,0.192,0.161,west-northwest,4.5,No
2017/03/23,02:40,0.384,0.232,0.392,0.360,0.331,0.191,0.162,west-northwest,5.9,No
2017/03/23,02:50,0.383,0.231,0.392,0.360,0.331,0.192,0.161,west-northwest,6.5,No
2017/03/23,03:00,0.385,0.230,0.392,0.360,0.332,0.191,0.162,west-northwest,6.4,No
2017/03/23,03:10,0.384,0.231,0.391,0.361,0.331,0.192,0.161,west-northwest,5.3,No
2017/03/23,03:20,0.384,0.233,0.392,0.362,0.332,0.192,0.161,west-northwest,5.3,No
2017/03/23,03:30,0.384,0.231,0.391,0.360,0.330,0.192,0.161,west-northwest,5.3,No
2017/03/23,03:40,0.384,0.232,0.391,0.361,0.330,0.192,0.161,west-northwest,7.6,No
2017/03/23,03:50,0.385,0.233,0.393,0.361,0.331,0.192,0.161,west,5.4,No
2017/03/23,04:00,0.384,0.232,0.393,0.362,0.332,0.191,0.162,west,6.6,No
2017/03/23,04:10,0.385,0.232,0.392,0.361,0.330,0.192,0.162,west,6.7,No
2017/03/23,04:20,0.383,0.232,0.392,0.361,0.331,0.191,0.161,west,5.6,No
2017/03/23,04:30,0.384,0.232,0.392,0.360,0.330,0.192,0.162,west-southwest,5.2,No
2017/03/23,04:40,0.383,0.231,0.392,0.361,0.330,0.191,0.162,west-southwest,5.3,No
2017/03/23,04:50,0.385,0.231,0.393,0.360,0.331,0.191,0.161,west,5.3,No
2017/03/23,05:00,0.385,0.231,0.390,0.362,0.331,0.192,0.162,west-northwest,3.9,No
2017/03/23,05:10,0.383,0.231,0.391,0.358,0.331,0.192,0.162,west,4.7,No
2017/03/23,05:20,0.382,0.232,0.392,0.362,0.331,0.192,0.162,west,5.3,No
2017/03/23,05:30,0.383,0.231,0.391,0.361,0.332,0.191,0.161,west-northwest,5.0,No
2017/03/23,05:40,0.384,0.232,0.393,0.360,0.331,0.191,0.162,west-northwest,5.4,No
2017/03/23,05:50,0.385,0.231,0.390,0.360,0.331,0.191,0.161,west,5.6,No
2017/03/23,06:00,0.383,0.231,0.391,0.360,0.331,0.191,0.161,west-northwest,4.4,No
2017/03/23,06:10,0.385,0.232,0.392,0.360,0.331,0.191,0.162,west,4.5,No
2017/03/23,06:20,0.384,0.232,0.393,0.362,0.332,0.193,0.161,west,5.2,No
2017/03/23,06:30,0.384,0.230,0.391,0.360,0.332,0.192,0.162,west,5.8,No
2017/03/23,06:40,0.383,0.231,0.392,0.360,0.331,0.192,0.162,west-northwest,4.2,No
2017/03/23,06:50,0.383,0.232,0.392,0.361,0.330,0.192,0.162,west-northwest,5.5,No
2017/03/23,07:00,0.385,0.232,0.394,0.362,0.332,0.192,0.161,west,5.1,No
2017/03/23,07:10,0.385,0.232,0.392,0.361,0.331,0.191,0.161,west,5.0,No
2017/03/23,07:20,0.384,0.231,0.392,0.360,0.331,0.191,0.161,west,5.3,No
2017/03/23,07:30,0.383,0.231,0.391,0.359,0.331,0.192,0.161,west-southwest,4.7,No
2017/03/23,07:40,0.384,0.231,0.393,0.359,0.330,0.191,0.161,west,4.5,No
2017/03/23,07:50,0.384,0.231,0.391,0.360,0.330,0.191,0.161,west,5.3,No
2017/03/23,08:00,0.384,0.230,0.392,0.360,0.331,0.190,0.160,west-northwest,4.7,No
2017/03/23,08:10,0.383,0.230,0.391,0.359,0.332,0.191,0.161,west-northwest,5.0,No
2017/03/23,08:20,0.384,0.232,0.391,0.360,0.330,0.192,0.160,west,6.2,No
2017/03/23,08:30,0.386,0.231,0.391,0.358,0.333,0.191,0.162,west,6.0,No
2017/03/23,08:40,0.382,0.232,0.391,0.361,0.330,0.190,0.160,west,5.4,No
2017/03/23,08:50,0.384,0.232,0.392,0.358,0.330,0.191,0.161,west-northwest,5.1,No
2017/03/23,09:00,0.384,0.230,0.392,0.362,0.333,0.191,0.161,west-northwest,5.8,No
2017/03/23,09:10,0.383,0.231,0.391,0.357,0.330,0.192,0.162,west,6.0,No
2017/03/23,09:20,0.385,0.232,0.391,0.361,0.330,0.191,0.161,west,5.3,No
2017/03/23,09:30,0.383,0.231,0.393,0.357,0.332,0.191,0.162,west-northwest,5.0,No
2017/03/23,09:40,0.383,0.231,0.391,0.362,0.328,0.191,0.162,west,6.2,No
2017/03/23,09:50,0.383,0.230,0.392,0.358,0.332,0.191,0.162,west-southwest,5.3,No
2017/03/23,10:00,0.382,0.232,0.392,0.360,0.329,0.192,0.161,west-northwest,4.3,No
2017/03/23,10:10,0.383,0.231,0.391,0.357,0.332,0.191,0.163,northwest,3.9,No
2017/03/23,10:20,0.381,0.231,0.394,0.361,0.330,0.191,0.161,west,7.1,No
2017/03/23,10:30,0.384,0.232,0.392,0.359,0.330,0.192,0.162,west,6.5,No
2017/03/23,10:40,0.382,0.231,0.391,0.362,0.331,0.191,0.161,west,6.5,No
2017/03/23,10:50,0.384,0.232,0.393,0.362,0.330,0.191,0.162,west,5.8,No
2017/03/23,11:00,0.385,0.234,0.391,0.364,0.332,0.190,0.162,west,5.4,No
2017/03/23,11:10,0.383,0.232,0.392,0.361,0.329,0.191,0.162,west,6.6,No
2017/03/23,11:20,0.386,0.232,0.393,0.362,0.333,0.192,0.159,west-northwest,5.9,No
2017/03/23,11:30,0.382,0.232,0.390,0.361,0.329,0.191,0.162,west,5.7,No
2017/03/23,11:40,0.385,0.231,0.392,0.361,0.332,0.192,0.161,west-northwest,4.6,No
2017/03/23,11:50,0.384,0.233,0.390,0.362,0.331,0.191,0.161,west,3.8,No
2017/03/23,12:00,0.383,0.230,0.393,0.360,0.334,0.191,0.162,west,3.2,No
2017/03/23,12:10,0.385,0.232,0.387,0.363,0.330,0.192,0.163,west,2.2,No
2017/03/23,12:20,0.383,0.231,0.392,0.361,0.331,0.191,0.160,west-southwest,7.2,No
2017/03/23,12:30,0.386,0.232,0.391,0.362,0.331,0.192,0.163,west-northwest,3.7,No
2017/03/23,12:40,0.383,0.231,0.392,0.360,0.334,0.192,0.162,west,5.6,No
2017/03/23,12:50,0.385,0.231,0.392,0.363,0.330,0.193,0.163,west,5.8,No
2017/03/23,13:00,0.382,0.233,0.391,0.359,0.330,0.192,0.162,west-northwest,5.3,No
2017/03/23,13:10,0.384,0.231,0.393,0.361,0.330,0.192,0.162,west-northwest,5.6,No
2017/03/23,13:20,0.385,0.233,0.393,0.363,0.332,0.192,0.161,west-northwest,7.1,No
2017/03/23,13:30,0.383,0.232,0.390,0.360,0.330,0.193,0.163,north,5.9,No
2017/03/23,13:40,0.384,0.232,0.391,0.363,0.335,0.192,0.162,north-northeast,7.1,No
2017/03/23,13:50,0.385,0.233,0.393,0.360,0.329,0.190,0.163,north-northeast,4.8,No
2017/03/23,14:00,0.387,0.232,0.392,0.363,0.332,0.191,0.163,north-northeast,5.9,No
2017/03/23,14:10,0.387,0.232,0.393,0.363,0.333,0.192,0.163,northeast,2.8,No
2017/03/23,14:20,0.385,0.232,0.394,0.364,0.331,0.192,0.162,west-northwest,0.8,No
2017/03/23,14:30,0.387,0.232,0.392,0.364,0.335,0.192,0.163,south-southwest,2.7,No
2017/03/23,14:40,0.386,0.232,0.394,0.361,0.331,0.191,0.163,southwest,2.2,No
2017/03/23,14:50,0.384,0.234,0.392,0.360,0.332,0.192,0.163,west-southwest,2.5,No
2017/03/23,15:00,0.386,0.231,0.393,0.364,0.332,0.191,0.163,west,2.3,No
2017/03/23,15:10,0.384,0.232,0.395,0.361,0.332,0.191,0.163,west,3.6,No
2017/03/23,15:20,0.386,0.233,0.391,0.363,0.333,0.192,0.162,north-northwest,1.6,No
2017/03/23,15:30,0.384,0.232,0.393,0.361,0.332,0.191,0.163,north,4.1,No
2017/03/23,15:40,0.386,0.232,0.392,0.361,0.333,0.193,0.162,north-northeast,2.5,No
2017/03/23,15:50,0.386,0.233,0.392,0.363,0.332,0.192,0.163,north-northeast,1.9,No
2017/03/23,16:00,0.385,0.232,0.394,0.362,0.333,0.192,0.163,north-northeast,0.8,No
2017/03/23,16:10,0.385,0.233,0.393,0.361,0.334,0.191,0.163,northeast,1.6,No
2017/03/23,16:20,0.387,0.233,0.393,0.363,0.333,0.192,0.163,east-northeast,0.8,No
2017/03/23,16:30,0.383,0.232,0.393,0.363,0.332,0.191,0.162,-,CALM,No
2017/03/23,16:40,0.387,0.232,0.393,0.363,0.333,0.192,0.163,north-northwest,0.8,No
2017/03/23,16:50,0.385,0.233,0.391,0.362,0.331,0.192,0.162,north-northwest,1.8,No
2017/03/23,17:00,0.385,0.231,0.393,0.362,0.333,0.191,0.162,north,0.8,No
2017/03/23,17:10,0.386,0.233,0.392,0.363,0.332,0.192,0.164,north-northwest,0.9,No
2017/03/23,17:20,0.385,0.233,0.394,0.362,0.332,0.192,0.162,north,0.8,No
2017/03/23,17:30,0.386,0.233,0.393,0.363,0.333,0.192,0.163,-,CALM,No
2017/03/23,17:40,0.386,0.232,0.391,0.362,0.333,0.192,0.163,north,0.5,No
2017/03/23,17:50,0.385,0.233,0.394,0.363,0.331,0.192,0.163,-,CALM,No
2017/03/23,18:00,0.385,0.233,0.393,0.362,0.334,0.192,0.163,-,CALM,No
2017/03/23,18:10,0.385,0.232,0.391,0.363,0.332,0.192,0.163,north-northwest,2.0,No
2017/03/23,18:20,0.385,0.232,0.394,0.363,0.332,0.192,0.163,-,CALM,No
2017/03/23,18:30,0.386,0.233,0.395,0.364,0.335,0.193,0.162,west,1.0,No
2017/03/23,18:40,0.386,0.232,0.395,0.363,0.332,0.191,0.163,west-northwest,2.1,No
2017/03/23,18:50,0.385,0.232,0.393,0.364,0.332,0.192,0.163,west-northwest,3.8,No
2017/03/23,19:00,0.386,0.233,0.394,0.364,0.333,0.193,0.163,west-northwest,5.3,No
2017/03/23,19:10,0.387,0.233,0.393,0.364,0.333,0.192,0.162,west-northwest,3.7,No
2017/03/23,19:20,0.386,0.232,0.392,0.364,0.333,0.192,0.163,west,5.0,No
2017/03/23,19:30,0.384,0.233,0.394,0.363,0.332,0.191,0.164,west,3.7,No
2017/03/23,19:40,0.385,0.232,0.395,0.365,0.333,0.193,0.163,northwest,3.1,No
2017/03/23,19:50,0.385,0.234,0.394,0.362,0.332,0.192,0.162,northwest,4.5,No
2017/03/23,20:00,0.385,0.233,0.393,0.363,0.333,0.193,0.163,north-northwest,5.0,No
2017/03/23,20:10,0.386,0.233,0.394,0.363,0.332,0.192,0.163,north-northwest,4.9,No
2017/03/23,20:20,0.385,0.232,0.394,0.362,0.333,0.193,0.161,north-northwest,4.8,No
2017/03/23,20:30,0.387,0.232,0.394,0.363,0.332,0.193,0.162,north-northwest,4.8,No
2017/03/23,20:40,0.384,0.233,0.395,0.362,0.331,0.194,0.163,north-northwest,5.3,No
2017/03/23,20:50,0.384,0.232,0.395,0.363,0.332,0.193,0.162,northwest,4.4,No
2017/03/23,21:00,0.387,0.233,0.395,0.364,0.332,0.194,0.162,north-northwest,6.4,No
2017/03/23,21:10,0.386,0.232,0.394,0.363,0.332,0.192,0.163,north-northwest,6.3,No
2017/03/23,21:20,0.386,0.232,0.395,0.362,0.332,0.192,0.163,north,8.6,No
2017/03/23,21:30,0.386,0.232,0.395,0.365,0.333,0.193,0.163,north-northwest,10.2,No
2017/03/23,21:40,0.386,0.231,0.396,0.365,0.331,0.192,0.162,north-northwest,11.7,No
2017/03/23,21:50,0.387,0.233,0.394,0.363,0.332,0.193,0.163,north-northwest,10.1,No
2017/03/23,22:00,0.386,0.233,0.395,0.363,0.332,0.192,0.162,north-northwest,9.6,No
2017/03/23,22:10,0.386,0.232,0.395,0.364,0.332,0.193,0.163,north-northwest,8.6,No
2017/03/23,22:20,0.385,0.232,0.395,0.364,0.333,0.192,0.163,north-northwest,7.8,No
2017/03/23,22:30,0.387,0.233,0.396,0.364,0.332,0.194,0.163,north-northwest,6.8,No
2017/03/23,22:40,0.386,0.233,0.395,0.365,0.332,0.193,0.162,north-northwest,9.1,No
2017/03/23,22:50,0.386,0.232,0.394,0.362,0.332,0.193,0.163,north,10.3,No
2017/03/23,23:00,0.385,0.233,0.394,0.363,0.331,0.193,0.164,north,7.6,No
2017/03/23,23:10,0.386,0.232,0.395,0.364,0.331,0.194,0.163,north,7.3,No
2017/03/23,23:20,0.386,0.233,0.395,0.363,0.332,0.193,0.163,north-northwest,7.6,No
2017/03/23,23:30,0.386,0.232,0.393,0.363,0.332,0.193,0.163,north-northwest,7.2,No
2017/03/23,23:40,0.386,0.232,0.395,0.364,0.332,0.192,0.163,north-northwest,6.4,No
2017/03/23,23:50,0.387,0.232,0.394,0.364,0.333,0.191,0.163,north-northwest,1.2,No
